| time (UTC) | temp F | wind direction | speed MPH | gust MPH | rain 1hr in | rain 24hr in | rain mn in | humidity % | barometer mb |
| 20260902033842 | 55 | 359 | 0.0 | 0.0 | 0.00 | 0.04 | 0.00 | 90 | 1010.3 |
| 20260902033126 | 55 | 23 | 0.0 | 0.0 | 0.00 | 0.04 | 0.00 | 90 | 1010.3 |
| 20260902032426 | 55 | 23 | 0.0 | 1.0 | 0.00 | 0.04 | 0.00 | 90 | 1010.3 |
| 20260902031035 | 56 | 23 | 0.0 | 3.0 | 0.00 | 0.04 | 0.00 | 90 | 1010.2 |
| 20260902030331 | 56 | 23 | 1.0 | 5.0 | 0.00 | 0.04 | 0.00 | 90 | 1010.3 |
| 20260902024927 | 56 | 23 | 0.0 | 4.0 | 0.00 | 0.04 | 0.00 | 90 | 1010.1 |
| 20260902024231 | 56 | 23 | 2.0 | 6.0 | 0.00 | 0.04 | 0.00 | 90 | 1010.2 |
| 20260902023527 | 57 | 23 | 2.0 | 6.0 | 0.00 | 0.04 | 0.00 | 90 | 1010.3 |
| 20260902022828 | 57 | 23 | 1.0 | 4.0 | 0.00 | 0.04 | 0.00 | 91 | 1010.3 |
| 20260902022128 | 57 | 23 | 3.0 | 5.0 | 0.00 | 0.04 | 0.00 | 91 | 1010.3 |
| 20260902021456 | 57 | 23 | 4.0 | 7.0 | 0.00 | 0.04 | 0.00 | 91 | 1010.3 |
| 20260902020728 | 56 | 23 | 4.0 | 7.0 | 0.00 | 0.04 | 0.00 | 91 | 1010.3 |
| 20260902020028 | 56 | 23 | 1.0 | 4.0 | 0.00 | 0.04 | 0.00 | 91 | 1010.1 |
| 20260902015333 | 56 | 23 | 0.0 | 3.0 | 0.00 | 0.04 | 0.00 | 91 | 1010.2 |
| 20260902014629 | 56 | 23 | 0.0 | 0.0 | 0.00 | 0.04 | 0.00 | 91 | 1010.1 |
| 20260902013929 | 56 | 23 | 0.0 | 0.0 | 0.00 | 0.04 | 0.00 | 90 | 1010.2 |
| 20260902013229 | 56 | 359 | 0.0 | 0.0 | 0.00 | 0.04 | 0.00 | 90 | 1010.2 |
| 20260902012537 | 56 | 23 | 0.0 | 4.0 | 0.00 | 0.04 | 0.00 | 90 | 1010.2 |
| 20260902011829 | 56 | 23 | 1.0 | 3.0 | 0.00 | 0.04 | 0.00 | 90 | 1010.4 |
| 20260902011129 | 56 | 23 | 1.0 | 5.0 | 0.00 | 0.04 | 0.00 | 90 | 1010.4 |
| 20260902004331 | 57 | 23 | 0.0 | 0.0 | 0.00 | 0.04 | 0.00 | 88 | 1010.2 |
| 20260902003638 | 57 | 23 | 0.0 | 0.0 | 0.00 | 0.04 | 0.00 | 88 | 1010.2 |
| 20260902002930 | 58 | 23 | 0.0 | 0.0 | 0.00 | 0.04 | 0.00 | 88 | 1010.1 |
| 20260902002255 | 58 | 23 | 0.0 | 0.0 | 0.00 | 0.04 | 0.00 | 88 | 1010.1 |
| 20260902001531 | 58 | 359 | 0.0 | 0.0 | 0.00 | 0.04 | 0.00 | 88 | 1010.0 |
| 20260902000843 | 58 | 23 | 0.0 | 1.0 | 0.00 | 0.04 | 0.00 | 88 | 1010.1 |
| 20260901235500 | 58 | 23 | 0.0 | 0.0 | 0.00 | 0.04 | 0.00 | 88 | 1010.2 |
| 20260901234732 | 58 | 23 | 0.0 | 3.0 | 0.00 | 0.04 | 0.00 | 88 | 1010.1 |
| 20260901234117 | 58 | 23 | 1.0 | 5.0 | 0.00 | 0.04 | 0.00 | 88 | 1010.1 |
| 20260901233417 | 58 | 0 | 0.0 | 6.0 | 0.00 | 0.04 | 0.00 | 88 | 1010.1 |
| 20260901232717 | 58 | 0 | 0.0 | 0.0 | 0.00 | 0.04 | 0.00 | 88 | 1010.1 |
| 20260901232017 | 57 | 0 | 0.0 | 0.0 | 0.00 | 0.04 | 0.00 | 88 | 1010.0 |
| 20260901231318 | 58 | 0 | 0.0 | 4.0 | 0.00 | 0.04 | 0.00 | 88 | 1010.0 |
| 20260901230618 | 58 | 0 | 0.0 | 1.0 | 0.00 | 0.04 | 0.00 | 87 | 1010.1 |
| 20260901225853 | 58 | 0 | 0.0 | 0.0 | 0.00 | 0.04 | 0.00 | 87 | 1009.9 |
| 20260901225219 | 58 | 0 | 0.0 | 0.0 | 0.00 | 0.04 | 0.00 | 86 | 1009.8 |
| 20260901224518 | 58 | 0 | 0.0 | 3.0 | 0.00 | 0.04 | 0.00 | 86 | 1009.9 |
| 20260901223819 | 59 | 0 | 0.0 | 3.0 | 0.00 | 0.04 | 0.00 | 86 | 1009.9 |
| 20260901223118 | 59 | 359 | 0.0 | 0.0 | 0.00 | 0.04 | 0.00 | 86 | 1009.9 |
| 20260901222421 | 59 | 0 | 1.0 | 5.0 | 0.00 | 0.04 | 0.00 | 86 | 1009.9 |
| 20260901221702 | 59 | 0 | 1.0 | 5.0 | 0.00 | 0.04 | 0.00 | 86 | 1009.9 |
| 20260901221019 | 59 | 0 | 2.0 | 6.0 | 0.00 | 0.04 | 0.00 | 87 | 1009.9 |
| 20260901220319 | 59 | 0 | 1.0 | 6.0 | 0.00 | 0.04 | 0.00 | 87 | 1009.9 |
| 20260901215619 | 58 | 0 | 2.0 | 6.0 | 0.00 | 0.04 | 0.00 | 87 | 1009.9 |
| 20260901214920 | 58 | 0 | 1.0 | 5.0 | 0.00 | 0.04 | 0.00 | 86 | 1009.9 |
| 20260901214220 | 58 | 0 | 0.0 | 0.0 | 0.00 | 0.04 | 0.00 | 86 | 1010.0 |
| 20260901213520 | 58 | 0 | 0.0 | 1.0 | 0.00 | 0.04 | 0.00 | 85 | 1010.0 |
| 20260901212821 | 59 | 359 | 0.0 | 0.0 | 0.00 | 0.04 | 0.00 | 85 | 1010.0 |
| 20260901212121 | 59 | 0 | 0.0 | 4.0 | 0.00 | 0.04 | 0.00 | 85 | 1010.0 |
| 20260901211420 | 60 | 0 | 3.0 | 7.0 | 0.00 | 0.04 | 0.00 | 85 | 1010.1 |
| 20260901210721 | 60 | 0 | 3.0 | 7.0 | 0.00 | 0.04 | 0.00 | 85 | 1010.1 |
| 20260901210021 | 60 | 0 | 3.0 | 6.0 | 0.00 | 0.04 | 0.00 | 85 | 1010.1 |
| 20260901205316 | 60 | 0 | 3.0 | 6.0 | 0.00 | 0.04 | 0.00 | 85 | 1010.1 |
| 20260901204621 | 60 | 0 | 2.0 | 5.0 | 0.00 | 0.04 | 0.00 | 85 | 1010.1 |
| 20260901203922 | 60 | 359 | 0.0 | 0.0 | 0.00 | 0.04 | 0.00 | 85 | 1010.1 |
| 20260901203222 | 60 | 0 | 2.0 | 5.0 | 0.00 | 0.04 | 0.00 | 86 | 1010.1 |
| 20260901202522 | 60 | 0 | 3.0 | 6.0 | 0.00 | 0.04 | 0.00 | 86 | 1010.0 |
| 20260901201741 | 59 | 0 | 2.0 | 5.0 | 0.00 | 0.04 | 0.00 | 87 | 1009.9 |
| 20260901201037 | 59 | 0 | 1.0 | 4.0 | 0.00 | 0.04 | 0.00 | 87 | 1009.9 |
| 20260901200423 | 59 | 0 | 2.0 | 5.0 | 0.00 | 0.04 | 0.00 | 87 | 1009.8 |
| 20260901195638 | 58 | 0 | 0.0 | 3.0 | 0.00 | 0.04 | 0.00 | 87 | 1009.9 |
| 20260901194938 | 58 | 0 | 0.0 | 0.0 | 0.00 | 0.04 | 0.00 | 86 | 1010.0 |
| 20260901194238 | 59 | 0 | 0.0 | 1.0 | 0.00 | 0.04 | 0.00 | 87 | 1010.1 |
| 20260901193538 | 59 | 0 | 0.0 | 2.0 | 0.00 | 0.04 | 0.00 | 86 | 1010.1 |
| 20260901192843 | 59 | 0 | 0.0 | 4.0 | 0.00 | 0.04 | 0.00 | 86 | 1010.1 |
| 20260901192223 | 59 | 0 | 1.0 | 4.0 | 0.00 | 0.04 | 0.00 | 85 | 1010.0 |
| 20260901191438 | 60 | 0 | 1.0 | 4.0 | 0.00 | 0.04 | 0.00 | 84 | 1009.9 |
| 20260901190811 | 60 | 0 | 2.0 | 7.0 | 0.00 | 0.04 | 0.00 | 84 | 1010.0 |
| 20260901190124 | 61 | 0 | 4.0 | 9.0 | 0.00 | 0.04 | 0.00 | 84 | 1010.0 |
| 20260901185339 | 61 | 0 | 6.0 | 12.0 | 0.00 | 0.04 | 0.00 | 84 | 1009.9 |
| 20260901184640 | 60 | 0 | 2.0 | 7.0 | 0.04 | 0.04 | 0.00 | 85 | 1009.8 |
| 20260901183240 | 60 | 359 | 0.0 | 0.0 | 0.04 | 0.04 | 0.00 | 86 | 1009.9 |
| 20260901182545 | 60 | 68 | 0.0 | 7.0 | 0.04 | 0.04 | 0.00 | 85 | 1009.7 |
| 20260901181853 | 60 | 68 | 0.0 | 0.0 | 0.04 | 0.04 | 0.00 | 84 | 1009.6 |
| 20260901181144 | 60 | 68 | 0.0 | 0.0 | 0.04 | 0.04 | 0.00 | 84 | 1009.5 |
| 20260901180444 | 60 | 68 | 0.0 | 2.0 | 0.04 | 0.04 | 0.00 | 83 | 1009.5 |
| 20260901175744 | 61 | 158 | 1.0 | 8.0 | 0.04 | 0.04 | 0.00 | 81 | 1009.5 |
| 20260901175056 | 63 | 158 | 2.0 | 8.0 | 0.00 | 0.00 | 0.00 | 79 | 1009.6 |
| 20260901174428 | 63 | 23 | 0.0 | 2.0 | 0.00 | 0.00 | 0.00 | 75 | 1009.2 |
| 20260901172953 | 64 | 359 | 0.0 | 0.0 | 0.00 | 0.00 | 0.00 | 74 | 1009.1 |
| 20260901172254 | 64 | 23 | 4.0 | 10.0 | 0.00 | 0.00 | 0.00 | 73 | 1009.1 |
| 20260901171549 | 64 | 23 | 4.0 | 9.0 | 0.00 | 0.00 | 0.00 | 73 | 1008.8 |
| 20260901170846 | 64 | 23 | 4.0 | 7.0 | 0.00 | 0.00 | 0.00 | 72 | 1008.9 |
| 20260901170142 | 64 | 23 | 3.0 | 8.0 | 0.00 | 0.00 | 0.00 | 72 | 1008.8 |
| 20260901165443 | 65 | 45 | 4.0 | 9.0 | 0.00 | 0.00 | 0.00 | 70 | 1008.8 |
| 20260901164742 | 65 | 23 | 5.0 | 10.0 | 0.00 | 0.00 | 0.00 | 69 | 1008.9 |
| 20260901164059 | 66 | 23 | 7.0 | 13.0 | 0.00 | 0.00 | 0.00 | 67 | 1008.8 |
| 20260901163343 | 69 | 45 | 6.0 | 14.0 | 0.00 | 0.00 | 0.00 | 63 | 1008.5 |
| 20260901162655 | 71 | 23 | 9.0 | 14.0 | 0.00 | 0.00 | 0.00 | 61 | 1008.6 |
| 20260901161243 | 72 | 359 | 0.0 | 0.0 | 0.00 | 0.00 | 0.00 | 58 | 1008.5 |
| 20260901160548 | 73 | 45 | 9.0 | 16.0 | 0.00 | 0.00 | 0.00 | 57 | 1008.4 |
| 20260901155844 | 74 | 45 | 7.0 | 15.0 | 0.00 | 0.00 | 0.00 | 57 | 1008.4 |
| 20260901155155 | 73 | 45 | 7.0 | 13.0 | 0.00 | 0.00 | 0.00 | 58 | 1008.4 |
| 20260901154501 | 74 | 68 | 6.0 | 12.0 | 0.00 | 0.00 | 0.00 | 57 | 1008.3 |
| 20260901153744 | 71 | 68 | 4.0 | 7.0 | 0.00 | 0.00 | 0.00 | 62 | 1008.3 |
| 20260901153045 | 68 | 68 | 3.0 | 9.0 | 0.00 | 0.00 | 0.00 | 64 | 1008.3 |
| 20260901152353 | 68 | 68 | 4.0 | 9.0 | 0.00 | 0.00 | 0.00 | 63 | 1008.0 |
| 20260901151645 | 70 | 90 | 5.0 | 12.0 | 0.00 | 0.00 | 0.00 | 60 | 1008.0 |
| 20260901150953 | 73 | 90 | 7.0 | 13.0 | 0.00 | 0.00 | 0.00 | 58 | 1008.2 |
| 20260901150245 | 71 | 68 | 6.0 | 12.0 | 0.00 | 0.00 | 0.00 | 62 | 1008.0 |
| 20260901145557 | 69 | 68 | 5.0 | 11.0 | 0.00 | 0.00 | 0.00 | 63 | 1008.0 |
| 20260901144905 | 69 | 45 | 5.0 | 11.0 | 0.00 | 0.00 | 0.00 | 62 | 1008.0 |
| 20260901144145 | 69 | 45 | 7.0 | 11.0 | 0.00 | 0.00 | 0.00 | 60 | 1008.0 |
| 20260901143446 | 70 | 45 | 9.0 | 19.0 | 0.00 | 0.00 | 0.00 | 58 | 1007.9 |
| 20260901142746 | 72 | 23 | 10.0 | 19.0 | 0.00 | 0.00 | 0.00 | 55 | 1008.0 |
| 20260901142046 | 73 | 45 | 8.0 | 14.0 | 0.00 | 0.00 | 0.00 | 54 | 1008.0 |
| 20260901141432 | 74 | 23 | 12.0 | 19.0 | 0.00 | 0.00 | 0.00 | 53 | 1007.7 |
| 20260901140654 | 73 | 68 | 9.0 | 19.0 | 0.00 | 0.00 | 0.00 | 55 | 1007.8 |
| 20260901135947 | 71 | 45 | 9.0 | 17.0 | 0.00 | 0.00 | 0.00 | 59 | 1007.9 |
| 20260901135253 | 71 | 68 | 7.0 | 13.0 | 0.00 | 0.00 | 0.00 | 60 | 1007.9 |
| 20260901133907 | 70 | 90 | 6.0 | 13.0 | 0.00 | 0.00 | 0.00 | 63 | 1007.8 |
| 20260901133148 | 69 | 90 | 7.0 | 14.0 | 0.00 | 0.00 | 0.00 | 62 | 1007.9 |
| 20260901132459 | 69 | 68 | 6.0 | 12.0 | 0.00 | 0.00 | 0.00 | 63 | 1008.0 |
| 20260901131748 | 70 | 68 | 7.0 | 14.0 | 0.00 | 0.00 | 0.00 | 63 | 1007.8 |
| 20260901131049 | 70 | 68 | 7.0 | 13.0 | 0.00 | 0.00 | 0.00 | 64 | 1007.7 |
| 20260901130348 | 68 | 68 | 4.0 | 9.0 | 0.00 | 0.00 | 0.00 | 67 | 1008.0 |
| 20260901125653 | 68 | 68 | 4.0 | 9.0 | 0.00 | 0.00 | 0.00 | 66 | 1007.8 |
| 20260901125012 | 70 | 68 | 6.0 | 13.0 | 0.00 | 0.00 | 0.00 | 64 | 1007.8 |
| 20260901124248 | 70 | 68 | 5.0 | 11.0 | 0.00 | 0.00 | 0.00 | 65 | 1007.8 |
| 20260901123556 | 68 | 68 | 6.0 | 12.0 | 0.00 | 0.00 | 0.00 | 67 | 1007.7 |
| 20260901122854 | 68 | 68 | 8.0 | 17.0 | 0.00 | 0.00 | 0.00 | 66 | 1007.6 |
| 20260901122157 | 69 | 45 | 8.0 | 17.0 | 0.00 | 0.00 | 0.00 | 65 | 1007.8 |
| 20260901121501 | 68 | 68 | 7.0 | 14.0 | 0.00 | 0.00 | 0.00 | 66 | 1007.8 |
| 20260901120754 | 69 | 68 | 7.0 | 12.0 | 0.00 | 0.00 | 0.00 | 65 | 1007.7 |
| 20260901120134 | 70 | 68 | 8.0 | 18.0 | 0.00 | 0.00 | 0.00 | 64 | 1007.9 |
| 20260901115350 | 70 | 68 | 7.0 | 13.0 | 0.00 | 0.00 | 0.00 | 63 | 1007.9 |
| 20260901114650 | 69 | 45 | 11.0 | 20.0 | 0.00 | 0.00 | 0.00 | 64 | 1007.7 |
| 20260901114008 | 69 | 45 | 13.0 | 20.0 | 0.00 | 0.00 | 0.00 | 64 | 1007.7 |
| 20260901113258 | 70 | 45 | 11.0 | 22.0 | 0.00 | 0.00 | 0.00 | 62 | 1007.6 |
| 20260901112551 | 71 | 23 | 9.0 | 14.0 | 0.00 | 0.00 | 0.00 | 64 | 1007.6 |
| 20260901111851 | 70 | 90 | 8.0 | 13.0 | 0.00 | 0.00 | 0.00 | 66 | 1007.4 |
| 20260901110519 | 68 | 68 | 9.0 | 13.0 | 0.00 | 0.00 | 0.00 | 68 | 1007.5 |
| 20260901105751 | 70 | 45 | 13.0 | 22.0 | 0.00 | 0.00 | 0.00 | 64 | 1007.5 |
| 20260901105056 | 71 | 45 | 7.0 | 17.0 | 0.00 | 0.00 | 0.00 | 65 | 1007.2 |
| 20260901104411 | 71 | 90 | 7.0 | 14.0 | 0.00 | 0.00 | 0.00 | 65 | 1007.2 |
| 20260901103651 | 70 | 68 | 6.0 | 11.0 | 0.00 | 0.00 | 0.00 | 69 | 1007.2 |
| 20260901103000 | 69 | 68 | 7.0 | 14.0 | 0.00 | 0.00 | 0.00 | 66 | 1007.3 |
| 20260901102252 | 69 | 68 | 8.0 | 14.0 | 0.00 | 0.00 | 0.00 | 66 | 1007.3 |
| 20260901101552 | 69 | 45 | 9.0 | 15.0 | 0.00 | 0.00 | 0.00 | 65 | 1007.1 |
| 20260901100857 | 70 | 23 | 9.0 | 16.0 | 0.00 | 0.00 | 0.00 | 65 | 1007.0 |
| 20260901100157 | 70 | 23 | 10.0 | 17.0 | 0.00 | 0.00 | 0.00 | 65 | 1007.1 |
| 20260901095501 | 70 | 23 | 11.0 | 17.0 | 0.00 | 0.00 | 0.00 | 63 | 1006.9 |
| 20260901094753 | 70 | 45 | 9.0 | 17.0 | 0.00 | 0.00 | 0.00 | 64 | 1007.1 |
| 20260901094101 | 71 | 45 | 8.0 | 16.0 | 0.00 | 0.00 | 0.00 | 62 | 1007.1 |
| 20260901092654 | 73 | 23 | 11.0 | 17.0 | 0.00 | 0.00 | 0.00 | 61 | 1006.9 |
| 20260901092002 | 71 | 68 | 9.0 | 15.0 | 0.00 | 0.00 | 0.00 | 63 | 1007.1 |
| 20260901091258 | 72 | 23 | 10.0 | 18.0 | 0.00 | 0.00 | 0.00 | 61 | 1007.2 |
| 20260901090602 | 72 | 359 | 0.0 | 0.0 | 0.00 | 0.00 | 0.00 | 62 | 1007.0 |
| 20260901085854 | 72 | 359 | 0.0 | 0.0 | 0.00 | 0.00 | 0.00 | 62 | 1007.2 |
| 20260901085158 | 71 | 23 | 11.0 | 19.0 | 0.00 | 0.00 | 0.00 | 64 | 1006.8 |
| 20260901084459 | 70 | 23 | 12.0 | 19.0 | 0.00 | 0.00 | 0.00 | 64 | 1006.9 |
| 20260901083802 | 70 | 45 | 10.0 | 17.0 | 0.00 | 0.00 | 0.00 | 64 | 1007.0 |
| 20260901083102 | 71 | 45 | 9.0 | 15.0 | 0.00 | 0.00 | 0.00 | 66 | 1006.7 |
| 20260901082355 | 69 | 45 | 9.0 | 17.0 | 0.00 | 0.00 | 0.00 | 68 | 1006.9 |
| 20260901081659 | 71 | 23 | 9.0 | 17.0 | 0.00 | 0.00 | 0.00 | 67 | 1006.8 |
| 20260901081004 | 70 | 23 | 12.0 | 20.0 | 0.00 | 0.00 | 0.00 | 67 | 1006.9 |
| 20260901080259 | 70 | 23 | 8.0 | 21.0 | 0.00 | 0.00 | 0.00 | 68 | 1006.9 |
| 20260901075600 | 70 | 359 | 0.0 | 0.0 | 0.00 | 0.00 | 0.00 | 70 | 1007.0 |
| 20260901074856 | 69 | 359 | 0.0 | 0.0 | 0.00 | 0.00 | 0.00 | 71 | 1007.0 |
| 20260901074156 | 68 | 23 | 9.0 | 15.0 | 0.00 | 0.00 | 0.00 | 71 | 1006.9 |
| 20260901073500 | 68 | 23 | 9.0 | 15.0 | 0.00 | 0.00 | 0.00 | 72 | 1006.8 |
| 20260901072056 | 64 | 23 | 7.0 | 13.0 | 0.00 | 0.00 | 0.00 | 78 | 1006.8 |
| 20260901071357 | 64 | 23 | 7.0 | 17.0 | 0.00 | 0.00 | 0.00 | 78 | 1006.7 |
| 20260901070657 | 64 | 23 | 7.0 | 15.0 | 0.00 | 0.00 | 0.00 | 77 | 1006.6 |
| 20260901065958 | 65 | 23 | 5.0 | 11.0 | 0.00 | 0.00 | 0.00 | 76 | 1006.5 |
| 20260901065257 | 65 | 23 | 4.0 | 13.0 | 0.00 | 0.00 | 0.00 | 77 | 1006.5 |
| 20260901064558 | 65 | 45 | 4.0 | 12.0 | 0.00 | 0.00 | 0.00 | 77 | 1006.5 |
| 20260901063858 | 65 | 23 | 5.0 | 12.0 | 0.00 | 0.00 | 0.00 | 78 | 1006.4 |
| 20260901063157 | 64 | 23 | 7.0 | 13.0 | 0.00 | 0.00 | 0.00 | 78 | 1006.4 |
| 20260901062502 | 64 | 23 | 9.0 | 14.0 | 0.00 | 0.00 | 0.00 | 79 | 1006.4 |
| 20260901061802 | 63 | 23 | 9.0 | 16.0 | 0.00 | 0.00 | 0.00 | 80 | 1006.4 |
| 20260901061059 | 63 | 23 | 7.0 | 13.0 | 0.00 | 0.00 | 0.00 | 81 | 1006.4 |
| 20260901060358 | 63 | 23 | 5.0 | 10.0 | 0.00 | 0.00 | 0.00 | 81 | 1006.1 |
| 20260901055659 | 63 | 23 | 5.0 | 12.0 | 0.00 | 0.00 | 0.00 | 80 | 1006.1 |
| 20260901055003 | 63 | 23 | 6.0 | 12.0 | 0.00 | 0.00 | 0.00 | 78 | 1006.3 |
| 20260901054302 | 65 | 23 | 4.0 | 9.0 | 0.00 | 0.00 | 0.00 | 78 | 1006.1 |
| 20260901052900 | 65 | 23 | 5.0 | 10.0 | 0.00 | 0.00 | 0.00 | 81 | 1006.1 |
| 20260901052200 | 64 | 23 | 4.0 | 8.0 | 0.00 | 0.00 | 0.00 | 81 | 1005.9 |
| 20260901051501 | 64 | 23 | 6.0 | 12.0 | 0.00 | 0.00 | 0.00 | 81 | 1005.9 |
| 20260901050811 | 64 | 23 | 6.0 | 12.0 | 0.00 | 0.00 | 0.00 | 83 | 1005.9 |
| 20260901050100 | 63 | 23 | 4.0 | 9.0 | 0.00 | 0.00 | 0.00 | 86 | 1005.8 |
| 20260901045409 | 62 | 23 | 3.0 | 7.0 | 0.00 | 0.00 | 0.00 | 90 | 1005.8 |
| 20260901044708 | 60 | 23 | 2.0 | 5.0 | 0.00 | 0.00 | 0.00 | 92 | 1005.8 |
| 20260901044002 | 59 | 23 | 1.0 | 6.0 | 0.00 | 0.00 | 0.00 | 91 | 1005.4 |
| 20260901043300 | 59 | 23 | 1.0 | 6.0 | 0.00 | 0.00 | 0.00 | 90 | 1005.3 |
| 20260901042609 | 59 | 23 | 2.0 | 6.0 | 0.00 | 0.00 | 0.00 | 90 | 1005.3 |
| 20260901041902 | 59 | 23 | 2.0 | 7.0 | 0.00 | 0.00 | 0.00 | 90 | 1005.3 |
| 20260901041214 | 59 | 23 | 2.0 | 5.0 | 0.00 | 0.00 | 0.00 | 90 | 1005.2 |
| 20260901040502 | 60 | 23 | 2.0 | 7.0 | 0.00 | 0.00 | 0.00 | 90 | 1005.3 |
| 20260901035810 | 60 | 23 | 3.0 | 7.0 | 0.00 | 0.00 | 0.00 | 90 | 1005.2 |
| 20260901035101 | 60 | 0 | 2.0 | 5.0 | 0.00 | 0.00 | 0.00 | 90 | 1005.1 |